Regional Weather Roundup
Issued by NWS

Home | Current Version | Previous Version | Graphics & Text | Print | Product List | Glossary On
Versions: 1 2 3 4 5 6 7 8 9 10 11 12 13 14 15 16 17 18 19 20 21 22 23 24 25 26 27 28 29 30 31 32 33 34 35 36 37 38 39 40 41 42 43 44 45 46 47 48 49 50
000
ASUS43 KFSD 201810
RWRSD

WEATHER ROUNDUP FOR SOUTH DAKOTA
NATIONAL WEATHER SERVICE SIOUX FALLS SD
100 PM CDT FRI OCT 20 2017

NOTE: "FAIR" INDICATES FEW OR NO CLOUDS BELOW 12,000 FEET WITH NO
SIGNIFICANT WEATHER AND/OR OBSTRUCTIONS TO VISIBILITY.


SDZ001>005-009-010-012>017-201900-
NORTHWEST AND NORTH CENTRAL SOUTH DAKOTA

CITY           SKY/WX    TMP DP  RH WIND       PRES   REMARKS
BUFFALO          N/A     78  34  20 SW13      29.31F
MOBRIDGE       SUNNY     71  50  47 S21G29    29.41F
$$

SDZ012>016-024>037-041>051-057-063-072>074-201900-
SOUTHWEST AND SOUTH CENTRAL SOUTH DAKOTA

CITY           SKY/WX    TMP DP  RH WIND       PRES   REMARKS
RAPID CTY ARPT SUNNY     78  35  21 S20G28    29.45F
PIERRE         PTSUNNY   71  51  49 S22       29.47F
CUSTER         SUNNY     68  32  26 W7G21     29.59F
ELLSWORTH AFB  SUNNY     77  36  22 S17       29.44
PHILIP         MOSUNNY   76  48  37 S8        29.45F
PINE RIDGE     SUNNY     75  44  33 S15G22    29.53F
SPEARFISH      FAIR      75  36  23 SW15G23   29.45F
WINNER         FAIR      73  52  47 S23G33    29.55F
$$

SDZ004>011-016>023-039-040-201900-
NORTHEAST SOUTH DAKOTA

CITY           SKY/WX    TMP DP  RH WIND       PRES   REMARKS
ABERDEEN       MOSUNNY   67  51  56 S22G29    29.53F
WATERTOWN      MOSUNNY   69  53  56 S26G33    29.61F
BROOKINGS      SUNNY     68  53  58 S20G29    29.67F
SISSETON         N/A     72  52  49 S22G32    29.57F
$$

SDZ017-020-022-023-036>040-048>070-201900-
SOUTHEAST SOUTH DAKOTA

CITY           SKY/WX    TMP DP  RH WIND       PRES   REMARKS
SIOUX FALLS    MOSUNNY   72  56  57 S20G29    29.70F
HURON          SUNNY     72  52  49 S21G33    29.56F
CHAMBERLAIN    MOSUNNY   76  54  45 S22G31    29.54F
MITCHELL       SUNNY     75  53  46 S26G33    29.60F
YANKTON        SUNNY     74  55  51 S20G25    29.69F
$$

ABBREVIATIONS USED IN REMARKS
   TC - TEMPERATURE IN CELSIUS
  WCI - WIND CHILL INDEX
   HX - HEAT INDEX
  VSB - VISIBILITY





USA.gov is the U.S. government's official web portal to all federal, state and local government web resources and services.